Location: Noulens
(43.8099°N, 0.1664°E)
Time: 17:08:11
(UTC+00:00)

Landsat 4 - Pass Details

Date: 07 June 2020
Orbit: 505 x 523 km, 98.2° (Epoch: 08 July)

Event Time Altitude Azimuth Distance (km) Brightness Sun altitude
Rises 00:03:57 0° 11° (N) 2,619 8.7 -23.4°
Reaches altitude 10° 00:06:03 10° 10° (N) 1,729 7.4 -23.4°
Enters shadow 00:09:25 68° 333° (NNW) 551 3.9 -23.4°
